Location: Clanezzo
(45.7500°N, 9.6000°E)
Time: 17:52:55
(UTC+00:00)

S-56A Canister/Altair - Visible Passes

Search period start: 26 May 2022 00:00
Search period end: 05 June 2022 00:00
Orbit: 634 x 2499 km, 38.9° (Epoch: 26 May)

Date Brightness Start Highest point End Pass type
(mag) Time Alt. Az. Time Alt. Az. Time Alt. Az.
26 May 10.9 00:59:53 10° WSW 01:02:16 12° WSW 01:02:16 12° WSW visible
26 May 10.0 20:08:01 10° W 20:22:50 64° S 20:35:54 10° ESE visible
26 May 10.0 22:14:43 10° W 22:28:09 42° SSW 22:33:16 31° S visible
27 May 10.8 00:24:33 10° W 00:30:39 16° WSW 00:30:39 16° WSW visible
27 May 10.1 19:34:38 10° W 19:49:18 65° S 20:02:59 10° ESE visible
27 May 10.1 21:41:02 10° W 21:54:55 46° SSW 22:01:41 28° SSE visible
27 May 10.6 23:49:55 10° W 23:58:27 19° SW 23:59:03 19° SW visible
28 May 10.1 21:07:27 10° W 21:21:37 50° SSW 21:30:08 23° SSE visible
28 May 10.5 23:15:36 10° W 23:25:34 23° SW 23:27:31 22° SW visible
29 May 10.2 20:33:56 10° W 20:48:14 53° SSW 20:58:39 18° SE visible
29 May 10.5 22:41:31 10° W 22:52:34 26° SW 22:56:01 24° SSW visible
30 May 10.2 20:00:31 10° W 20:14:48 56° SSW 20:27:11 13° SE visible
30 May 10.5 22:07:36 10° W 22:19:30 30° SW 22:24:34 24° S visible
31 May 10.2 19:27:12 10° W 19:41:19 58° SSW 19:55:13 10° SE visible
31 May 10.5 21:33:50 10° W 21:46:21 34° SW 21:53:09 22° S visible
01 Jun 10.6 21:00:12 10° W 21:13:08 37° SW 21:21:48 20° SSE visible
01 Jun 11.1 23:11:42 10° WSW 23:16:27 12° SW 23:19:11 11° SW visible
02 Jun 10.5 20:26:41 10° W 20:39:51 40° SW 20:50:28 16° SSE visible
02 Jun 11.0 22:36:24 10° W 22:43:32 15° SW 22:47:52 13° SSW visible
03 Jun 10.5 19:53:17 10° W 20:06:29 43° SSW 20:19:12 11° SSE visible
03 Jun 11.0 22:01:51 10° W 22:10:32 18° SW 22:16:36 14° SSW visible
04 Jun 10.5 19:20:00 10° W 19:33:07 46° SSW 19:46:44 10° SE visible
04 Jun 11.0 21:27:42 10° W 21:37:29 21° SW 21:45:22 13° SSW visible
